Location: Austin
(30.3000°N, 97.7500°W)
Time: 04:08:09
(UTC-06:00)

Cosmos 1378 - Visible Passes

Search period start: 09 December 2023 00:00
Search period end: 19 December 2023 00:00
Orbit: 447 x 451 km, 82.5° (Epoch: 08 December)

Date Brightness Start Highest point End Pass type
(mag) Time Alt. Az. Time Alt. Az. Time Alt. Az.
09 Dec 2.8 06:20:18 10° N 06:23:45 88° W 06:27:10 10° S visible
09 Dec 3.9 18:18:50 10° SSE 18:21:45 26° E 18:23:55 14° NE visible
09 Dec 6.3 19:55:42 10° W 19:56:05 10° WNW 19:56:29 10° WNW visible
10 Dec 4.8 05:44:54 10° NNE 05:48:01 31° E 05:51:07 10° SE visible
10 Dec 5.2 19:17:19 10° SW 19:20:12 25° W 19:23:04 10° NNW visible
11 Dec 6.1 05:10:32 10° NE 05:12:09 13° ENE 05:13:45 10° ESE visible
11 Dec 4.3 06:43:46 10° NW 06:46:24 21° W 06:49:01 10° SW visible
11 Dec 3.1 18:40:59 10° SSW 18:44:24 71° W 18:47:51 10° N visible
12 Dec 2.9 06:08:03 15° NNW 06:10:45 56° W 06:14:07 10° S visible
12 Dec 3.4 18:05:29 10° SSE 18:08:42 38° E 18:11:55 10° NNE visible
13 Dec 3.8 05:33:31 27° NNE 05:34:59 47° E 05:38:18 10° SSE visible
13 Dec 5.8 19:04:47 10° WSW 19:07:10 18° WNW 19:09:34 10° NW visible
14 Dec 5.6 04:58:58 18° ENE 04:59:06 18° ENE 05:01:32 10° SE visible
14 Dec 4.7 06:32:41 14° WNW 06:33:12 14° W 06:35:08 10° WSW visible
14 Dec 4.0 18:27:56 10° SSW 18:31:15 45° W 18:34:35 10° N visible
15 Dec 3.7 05:58:07 34° WSW 05:58:07 34° WSW 06:00:42 10° SSW visible
15 Dec 3.0 17:52:03 10° S 17:55:25 58° E 17:58:49 10° NNE visible
16 Dec 4.7 05:23:33 25° SSE 05:23:33 25° SSE 05:25:08 10° S visible
16 Dec 6.1 18:52:23 10° WSW 18:53:55 12° WNW 18:55:27 10° NW visible
17 Dec 4.9 18:14:48 10° SW 18:17:53 31° W 18:20:59 10° NNW visible
